STARLINK-32459, 61715

Orbit data source: Space-Track

STARLINK-32459, 61715 is a payload satellite owned by SpaceX/Seattle (US) in LEO that was launched on Wed, 30 Oct 2024 UTC via an FALCON 9 launch vehicle from the Air Force Eastern Test Range (AFETR). Payload-class satellites include a variety of spacecraft equipped with specific instruments for various scientific and technological missions. These include communications satellites like Starlink; space stations such as the ISS; scientific satellites like the Hubble; Earth observation satellites from companies like Planet Labs, Umbra, and HawkEye 360; GPS; miniature CubeSats for education and research; and military/defense satellites.

Loading next visibility...
Identifier
61715, 2024-196J
Orbit
LEO
Country
Flag of USUS
Related business
Manufacturer
SpaceX/Seattle
Mission
Operational Commercial Communications
Bus & Motor
STARLINK V2M, Unknown motor
Mass
730 kg wet, ~700 kg dry
Launch date (UTC)
2024-10-30 (1 year ago)
Launch vehicle
FALCON 9
Launch site
Air Force Eastern Test Range (AFETR)
Object type
Payload
Rocket body
Debris
Shape & HBR
Box + 2 Pan, 17.7 m
Radar Cross Section
33.884 m², Large (>1 m²)

Expand to show TLE details & history
Last TLE update: 1 day ago

TLE from 1 day ago
0 STARLINK-32459
1 61715U 24196J   25348.68570099 -.00000255  00000-0  34923-5 0  9997
2 61715  53.1586 136.0623 0000870  87.9040 272.2061 15.30198689 64149
Epoch: 2025-12-14T16:27Z
TLE epoch observation values (Epoch: 2025-12-14T16:27:24.565Z)
Latitude
0.00003°
Longitude
165.6149°
Altitude
476.096 km
Speed
7.629 km/s
True Right ascension
09h 04m 14s
True Declination
0° 00' 00"
Sunlit
Object was in full shadow at epoch
Visualization orbit readout
Latitude
Unknown
Longitude
Unknown
Altitude
Unknown
Speed
Unknown
Apparent Right ascension
Unknown
Apparent Declination
Unknown
Sunlit
N/A
Visualization observer readout
Local Sidereal Time
21:58:43
Azimuth
Unknown
Elevation
Unknown
Doppler factor
Unknown
Orbital elements
Apogee altitude
476.072 km
Perigee altitude
474.879 km
Semi-major axis
6,853.613 km
Eccentricity
0.00009
Inclination
53.1586°
RAAN
136.0623°
Arg. of periapsis
87.904°
True anomaly
272.19614°
Mean anomaly
272.2061°
Eccentric anomaly
272.20112°
Mean motion
3.82529 °/min
Orbital period
94.11 mins
BSTAR
0.0000034923
Loading maneuver chart data...
Computing Atmospheric mass density...
Loading historical data...
Loading historical data...
Loading historical data...
Loading historical data...
Loading historical data...
Loading historical data...
Loading historical data...

Documentation

Showing up to 5 results
|